Radiation Dose at Monitoring Post of Fukushima Daini Nuclear Power Station
Date,Time,MP-1(microSv/h),MP-2(microSv/h),MP-3(microSv/h),MP-4(microSv/h),MP-5(microSv/h),MP-6(microSv/h),MP-7(microSv/h),Wind Direction,Wind Velocity(m/s),Rain
2018/05/07,00:00,0.315,0.198,0.320,0.307,0.301,0.160,0.097,north-northeast,1.5,No
2018/05/07,00:10,0.315,0.197,0.321,0.309,0.301,0.162,0.097,north-northeast,1.7,No
2018/05/07,00:20,0.314,0.197,0.321,0.306,0.301,0.160,0.098,-,CALM,Yes
2018/05/07,00:30,0.314,0.197,0.322,0.309,0.303,0.161,0.098,north,2.0,Yes
2018/05/07,00:40,0.316,0.199,0.320,0.307,0.300,0.160,0.099,north,1.7,Yes
2018/05/07,00:50,0.315,0.198,0.322,0.309,0.301,0.162,0.098,north-northeast,3.1,Yes
2018/05/07,01:00,0.316,0.198,0.321,0.306,0.302,0.162,0.098,north,3.7,Yes
2018/05/07,01:10,0.316,0.198,0.323,0.308,0.303,0.162,0.098,north,3.6,Yes
2018/05/07,01:20,0.316,0.198,0.321,0.307,0.301,0.162,0.098,north,1.5,No
2018/05/07,01:30,0.316,0.199,0.323,0.308,0.303,0.161,0.098,north,1.7,Yes
2018/05/07,01:40,0.315,0.198,0.321,0.308,0.302,0.161,0.098,north,1.7,Yes
2018/05/07,01:50,0.316,0.199,0.324,0.308,0.303,0.162,0.099,north,2.1,Yes
2018/05/07,02:00,0.316,0.198,0.321,0.308,0.301,0.161,0.100,north,0.6,Yes
2018/05/07,02:10,0.318,0.201,0.324,0.310,0.302,0.162,0.098,-,CALM,Yes
2018/05/07,02:20,0.316,0.199,0.323,0.309,0.303,0.162,0.100,-,CALM,Yes
2018/05/07,02:30,0.318,0.199,0.325,0.311,0.304,0.163,0.100,-,CALM,Yes
2018/05/07,02:40,0.316,0.199,0.322,0.309,0.301,0.162,0.100,north,0.8,Yes
2018/05/07,02:50,0.319,0.200,0.325,0.309,0.303,0.162,0.100,north-northeast,1.7,Yes
2018/05/07,03:00,0.316,0.200,0.323,0.308,0.301,0.163,0.100,north-northeast,1.9,Yes
2018/05/07,03:10,0.318,0.199,0.326,0.311,0.302,0.163,0.100,north-northeast,2.8,Yes
2018/05/07,03:20,0.316,0.200,0.324,0.309,0.302,0.163,0.100,north,4.5,Yes
2018/05/07,03:30,0.320,0.202,0.326,0.311,0.307,0.164,0.101,north,5.4,Yes
2018/05/07,03:40,0.318,0.203,0.326,0.310,0.305,0.167,0.102,north-northwest,6.1,Yes
2018/05/07,03:50,0.319,0.200,0.326,0.311,0.306,0.165,0.102,north-northwest,7.7,Yes
2018/05/07,04:00,0.318,0.202,0.324,0.311,0.304,0.165,0.101,north-northwest,8.3,Yes
2018/05/07,04:10,0.319,0.200,0.323,0.310,0.304,0.164,0.101,north-northwest,7.1,Yes
2018/05/07,04:20,0.317,0.200,0.324,0.312,0.303,0.163,0.101,north-northwest,7.0,Yes
2018/05/07,04:30,0.318,0.199,0.323,0.309,0.302,0.163,0.100,north-northwest,7.1,Yes
2018/05/07,04:40,0.317,0.199,0.325,0.310,0.301,0.162,0.100,north,6.8,No
2018/05/07,04:50,0.317,0.198,0.322,0.308,0.302,0.162,0.099,north,7.1,No
2018/05/07,05:00,0.316,0.197,0.323,0.309,0.302,0.162,0.100,north-northwest,7.6,No
2018/05/07,05:10,0.316,0.199,0.322,0.309,0.300,0.161,0.099,north-northwest,6.5,No
2018/05/07,05:20,0.317,0.197,0.323,0.307,0.301,0.161,0.098,north,8.2,No
2018/05/07,05:30,0.314,0.198,0.322,0.309,0.299,0.161,0.098,north,7.7,No
2018/05/07,05:40,0.316,0.197,0.321,0.306,0.302,0.161,0.097,north,7.1,No
2018/05/07,05:50,0.314,0.198,0.320,0.308,0.299,0.161,0.098,north-northwest,6.5,No
2018/05/07,06:00,0.317,0.197,0.322,0.305,0.302,0.160,0.097,north-northwest,6.1,No
2018/05/07,06:10,0.315,0.197,0.323,0.307,0.300,0.161,0.097,north-northwest,6.9,No
2018/05/07,06:20,0.316,0.197,0.320,0.307,0.301,0.160,0.098,north-northwest,6.9,No
2018/05/07,06:30,0.314,0.197,0.323,0.308,0.299,0.160,0.098,north-northwest,6.9,No
2018/05/07,06:40,0.316,0.198,0.320,0.306,0.301,0.159,0.097,north-northwest,5.9,No
2018/05/07,06:50,0.314,0.198,0.322,0.307,0.299,0.161,0.098,north-northwest,5.2,No
2018/05/07,07:00,0.316,0.197,0.320,0.307,0.301,0.161,0.097,north,7.4,No
2018/05/07,07:10,0.315,0.197,0.323,0.309,0.299,0.160,0.097,north,6.1,No
2018/05/07,07:20,0.316,0.196,0.320,0.304,0.298,0.160,0.098,north,5.7,No
2018/05/07,07:30,0.315,0.198,0.319,0.307,0.300,0.160,0.097,north,5.3,No
2018/05/07,07:40,0.315,0.197,0.321,0.307,0.297,0.161,0.097,north,5.5,No
2018/05/07,07:50,0.316,0.198,0.319,0.305,0.303,0.160,0.097,north,4.6,No
2018/05/07,08:00,0.313,0.197,0.323,0.308,0.298,0.161,0.096,north,4.9,No
2018/05/07,08:10,0.317,0.197,0.320,0.304,0.299,0.160,0.097,north,5.5,No
2018/05/07,08:20,0.314,0.199,0.324,0.307,0.302,0.160,0.097,north,6.7,No
2018/05/07,08:30,0.315,0.196,0.320,0.307,0.298,0.160,0.096,north,5.0,No
2018/05/07,08:40,0.316,0.198,0.320,0.304,0.301,0.160,0.096,north,5.8,No
2018/05/07,08:50,0.312,0.197,0.322,0.305,0.301,0.159,0.097,north,4.9,No
2018/05/07,09:00,0.317,0.197,0.320,0.309,0.297,0.161,0.097,north-northeast,4.4,No
2018/05/07,09:10,0.316,0.198,0.321,0.306,0.300,0.160,0.096,north,5.4,No
2018/05/07,09:20,0.313,0.197,0.320,0.303,0.301,0.159,0.097,north-northeast,7.2,No
2018/05/07,09:30,0.317,0.197,0.318,0.307,0.299,0.161,0.097,north,6.8,No
2018/05/07,09:40,0.314,0.198,0.323,0.307,0.301,0.160,0.097,north,6.2,No
2018/05/07,09:50,0.317,0.197,0.319,0.305,0.301,0.159,0.098,north,5.1,No
2018/05/07,10:00,0.315,0.197,0.324,0.308,0.299,0.161,0.098,north,6.3,No
2018/05/07,10:10,0.314,0.197,0.321,0.307,0.302,0.159,0.097,north,6.9,No
2018/05/07,10:20,0.318,0.196,0.320,0.305,0.303,0.158,0.097,north,6.9,No
2018/05/07,10:30,0.314,0.198,0.323,0.307,0.299,0.161,0.098,north,7.2,No
2018/05/07,10:40,0.317,0.196,0.320,0.307,0.299,0.160,0.096,north,6.8,No
2018/05/07,10:50,0.315,0.196,0.321,0.305,0.302,0.160,0.097,north,6.9,No
2018/05/07,11:00,0.315,0.198,0.321,0.307,0.298,0.161,0.098,north,5.7,No
2018/05/07,11:10,0.316,0.197,0.320,0.305,0.303,0.161,0.097,north,6.0,No
2018/05/07,11:20,0.315,0.198,0.322,0.310,0.300,0.160,0.097,north,5.4,No
2018/05/07,11:30,0.317,0.196,0.320,0.307,0.301,0.160,0.097,north,5.0,No
2018/05/07,11:40,0.314,0.199,0.323,0.307,0.302,0.160,0.096,north-northeast,6.5,No
2018/05/07,11:50,0.317,0.197,0.322,0.308,0.300,0.161,0.098,north,5.9,Yes
2018/05/07,12:00,0.315,0.197,0.323,0.305,0.301,0.161,0.097,north-northeast,6.7,Yes
2018/05/07,12:10,0.316,0.198,0.322,0.308,0.301,0.160,0.097,north-northeast,5.8,Yes
2018/05/07,12:20,0.317,0.196,0.319,0.308,0.299,0.161,0.098,north,6.0,Yes
2018/05/07,12:30,0.315,0.198,0.321,0.305,0.303,0.161,0.097,north-northeast,5.8,No
2018/05/07,12:40,0.318,0.197,0.322,0.310,0.300,0.160,0.098,north-northeast,5.9,No
2018/05/07,12:50,0.316,0.199,0.322,0.305,0.300,0.160,0.098,north,5.6,No
2018/05/07,13:00,0.318,0.198,0.322,0.308,0.302,0.161,0.098,north-northeast,5.9,No
2018/05/07,13:10,0.317,0.197,0.321,0.308,0.299,0.161,0.098,north-northeast,4.9,No
2018/05/07,13:20,0.317,0.198,0.322,0.306,0.303,0.161,0.097,north-northeast,8.9,No
2018/05/07,13:30,0.318,0.198,0.320,0.310,0.301,0.160,0.098,north-northeast,7.4,No
2018/05/07,13:40,0.317,0.198,0.323,0.306,0.301,0.161,0.098,north,7.8,Yes
2018/05/07,13:50,0.317,0.197,0.321,0.308,0.303,0.161,0.097,north-northeast,8.1,No
2018/05/07,14:00,0.316,0.198,0.322,0.308,0.302,0.161,0.098,north-northeast,7.7,Yes
2018/05/07,14:10,0.316,0.198,0.322,0.308,0.304,0.161,0.097,north-northeast,7.0,Yes
2018/05/07,14:20,0.317,0.198,0.324,0.309,0.300,0.159,0.098,north-northeast,8.1,No
2018/05/07,14:30,0.316,0.198,0.321,0.307,0.303,0.161,0.097,north,7.6,Yes
2018/05/07,14:40,0.318,0.198,0.325,0.310,0.301,0.161,0.098,north,5.4,Yes
2018/05/07,14:50,0.319,0.199,0.322,0.308,0.303,0.162,0.097,north,6.8,Yes
2018/05/07,15:00,0.318,0.200,0.325,0.310,0.302,0.162,0.100,north-northeast,6.7,Yes
2018/05/07,15:10,0.318,0.200,0.325,0.310,0.304,0.164,0.099,north,6.3,Yes
2018/05/07,15:20,0.320,0.201,0.324,0.311,0.303,0.164,0.101,north,7.3,Yes
2018/05/07,15:30,0.319,0.203,0.327,0.312,0.305,0.167,0.102,north,7.4,Yes
2018/05/07,15:40,0.322,0.205,0.326,0.311,0.306,0.168,0.103,north-northeast,7.8,Yes
2018/05/07,15:50,0.320,0.204,0.327,0.314,0.304,0.167,0.105,north-northeast,8.5,Yes
2018/05/07,16:00,0.321,0.204,0.326,0.310,0.306,0.168,0.105,north-northeast,8.7,Yes
2018/05/07,16:10,0.319,0.204,0.326,0.313,0.303,0.167,0.104,north,8.3,Yes
2018/05/07,16:20,0.319,0.204,0.324,0.310,0.304,0.167,0.104,north,8.1,Yes
2018/05/07,16:30,0.319,0.204,0.324,0.310,0.303,0.167,0.104,north,6.1,Yes
2018/05/07,16:40,0.317,0.204,0.324,0.310,0.305,0.168,0.105,north-northeast,7.4,Yes
2018/05/07,16:50,0.319,0.205,0.323,0.310,0.304,0.169,0.105,north-northeast,9.5,Yes
2018/05/07,17:00,0.317,0.205,0.324,0.311,0.305,0.168,0.107,-,CALM,Yes
2018/05/07,17:10,0.317,0.204,0.323,0.309,0.306,0.170,0.105,northeast,8.3,Yes
2018/05/07,17:20,0.318,0.203,0.322,0.310,0.304,0.168,0.105,north-northeast,8.3,Yes
2018/05/07,17:30,0.315,0.203,0.323,0.307,0.304,0.166,0.104,northeast,10.6,Yes
2018/05/07,17:40,0.316,0.202,0.321,0.306,0.303,0.165,0.103,northeast,10.3,Yes
2018/05/07,17:50,0.315,0.201,0.320,0.307,0.302,0.165,0.102,-,CALM,Yes
2018/05/07,18:00,0.315,0.200,0.320,0.304,0.302,0.164,0.102,northeast,10.7,Yes
2018/05/07,18:10,0.316,0.200,0.319,0.306,0.302,0.164,0.102,-,CALM,Yes
2018/05/07,18:20,0.313,0.200,0.321,0.306,0.304,0.163,0.102,-,CALM,Yes
2018/05/07,18:30,0.315,0.200,0.319,0.304,0.301,0.164,0.104,-,CALM,Yes
2018/05/07,18:40,0.314,0.201,0.319,0.306,0.302,0.165,0.103,-,CALM,Yes
2018/05/07,18:50,0.314,0.202,0.321,0.305,0.304,0.165,0.104,-,CALM,Yes
2018/05/07,19:00,0.315,0.202,0.318,0.307,0.302,0.166,0.105,-,CALM,Yes
2018/05/07,19:10,0.314,0.204,0.319,0.308,0.305,0.167,0.105,-,CALM,Yes
2018/05/07,19:20,0.315,0.204,0.320,0.306,0.302,0.167,0.106,-,CALM,Yes
2018/05/07,19:30,0.316,0.204,0.318,0.306,0.304,0.169,0.105,-,CALM,Yes
2018/05/07,19:40,0.314,0.203,0.320,0.305,0.304,0.166,0.105,-,CALM,Yes
2018/05/07,19:50,0.313,0.201,0.317,0.305,0.303,0.166,0.104,-,CALM,Yes
2018/05/07,20:00,0.313,0.200,0.317,0.305,0.302,0.163,0.102,-,CALM,Yes
2018/05/07,20:10,0.310,0.201,0.317,0.301,0.300,0.163,0.101,-,CALM,Yes
2018/05/07,20:20,0.311,0.198,0.314,0.302,0.299,0.161,0.101,-,CALM,Yes
2018/05/07,20:30,0.310,0.197,0.314,0.302,0.300,0.160,0.099,-,CALM,No
2018/05/07,20:40,0.308,0.197,0.314,0.299,0.297,0.159,0.098,north-northeast,11.7,No
2018/05/07,20:50,0.310,0.196,0.312,0.301,0.297,0.159,0.098,-,CALM,Yes
2018/05/07,21:00,0.308,0.195,0.314,0.300,0.296,0.159,0.098,north-northeast,11.7,Yes
2018/05/07,21:10,0.309,0.197,0.313,0.301,0.296,0.161,0.099,-,CALM,Yes
2018/05/07,21:20,0.311,0.197,0.315,0.302,0.299,0.163,0.101,-,CALM,Yes
2018/05/07,21:30,0.311,0.198,0.316,0.301,0.300,0.163,0.101,-,CALM,Yes
2018/05/07,21:40,0.311,0.199,0.315,0.302,0.302,0.163,0.102,-,CALM,Yes
2018/05/07,21:50,0.311,0.200,0.316,0.302,0.302,0.166,0.103,-,CALM,Yes
2018/05/07,22:00,0.310,0.201,0.317,0.302,0.301,0.166,0.105,north-northeast,10.9,Yes
2018/05/07,22:10,0.312,0.202,0.317,0.304,0.303,0.166,0.105,-,CALM,Yes
2018/05/07,22:20,0.314,0.204,0.318,0.304,0.303,0.169,0.106,-,CALM,Yes
2018/05/07,22:30,0.314,0.204,0.316,0.303,0.304,0.169,0.107,north,11.2,Yes
2018/05/07,22:40,0.313,0.205,0.316,0.303,0.305,0.171,0.108,-,CALM,Yes
2018/05/07,22:50,0.314,0.205,0.318,0.301,0.302,0.168,0.109,-,CALM,Yes
2018/05/07,23:00,0.314,0.204,0.315,0.302,0.304,0.169,0.108,-,CALM,Yes
2018/05/07,23:10,0.312,0.205,0.315,0.302,0.303,0.169,0.109,-,CALM,Yes
2018/05/07,23:20,0.313,0.205,0.315,0.300,0.303,0.169,0.109,north,12.3,Yes
2018/05/07,23:30,0.312,0.204,0.314,0.301,0.304,0.168,0.108,north,11.2,Yes
2018/05/07,23:40,0.311,0.201,0.314,0.301,0.303,0.166,0.107,north,11.7,Yes
2018/05/07,23:50,0.311,0.202,0.315,0.299,0.302,0.167,0.106,north,12.3,Yes
